Temp
-13 -13 -13 -13 -13 -13 -13 -13 -13 -13 -13 -12 -12 -12 -12 -12 -11 -11 -11 -11 -11 -11 -11 -11 -10 -11 -11 -11 -11 -11 -10 -8 -9 -9 -8 -9 -8 -9 -10 -10 -10 -9 -10 -9 -9
-13 -13 -13 -13 -13 -13 -13 -13 -13 -13 -13 -13 -13 -12 -12 -12 -11 -11 -11 -11 -11 -11 -11 -11 -11 -11 -11 -11 -11 -11 -9 -8 -9 -10 -9 -10 -10 -9 -9 -10 -8 -9 -10 -9 -9
-13 -13 -13 -13 -13 -13 -13 -13 -13 -13 -13 -13 -13 -13 -13 -12 -12 -12 -11 -11 -11 -11 -11 -11 -12 -11 -11 -11 -11 -11 -9 -10 -10 -10 -10 -11 -10 -10 -10 -9 -10 -9 -10 -9 -9
-13 -13 -13 -14 -13 -13 -13 -13 -13 -13 -13 -13 -13 -13 -13 -12 -12 -12 -12 -12 -12 -11 -11 -11 -11 -11 -11 -11 -11 -10 -10 -10 -10 -11 -10 -10 -10 -11 -10 -10 -10 -10 -9 -10 -9
-13 -13 -13 -14 -14 -14 -13 -14 -14 -14 -14 -13 -13 -13 -13 -12 -12 -13 -12 -12 -12 -12 -12 -12 -11 -11 -11 -11 -11 -10 -10 -10 -10 -10 -11 -11 -11 -10 -11 -9 -8 -10 -10 -9 -10
-13 -13 -13 -14 -14 -14 -14 -14 -14 -14 -14 -14 -14 -14 -13 -12 -12 -13 -12 -12 -12 -12 -12 -12 -12 -11 -11 -11 -11 -11 -10 -10 -10 -10 -10 -11 -11 -12 -9 -11 -10 -10 -10 -9 -10
-13 -13 -13 -13 -13 -14 -14 -14 -14 -14 -14 -14 -13 -13 -13 -12 -12 -12 -12 -13 -13 -12 -12 -12 -12 -12 -12 -12 -12 -12 -11 -11 -10 -10 -10 -11 -11 -11 -10 -10 -10 -10 -11 -10 -11
-13 -13 -13 -13 -13 -13 -14 -13 -13 -14 -14 -13 -13 -13 -12 -13 -12 -12 -12 -12 -12 -12 -12 -12 -12 -12 -12 -12 -12 -12 -11 -11 -11 -11 -11 -13 -11 -10 -10 -10 -10 -10 -11 -11 -11
-14 -14 -13 -14 -14 -14 -14 -14 -14 -14 -13 -13 -13 -13 -12 -13 -12 -13 -12 -12 -12 -12 -12 -12 -12 -12 -12 -12 -12 -12 -12 -12 -11 -12 -12 -13 -12 -10 -11 -11 -11 -10 -10 -11 -11
-15 -15 -14 -14 -14 -14 -14 -14 -14 -14 -14 -14 -13 -13 -13 -13 -13 -13 -13 -13 -12 -12 -12 -12 -12 -12 -12 -12 -12 -12 -12 -12 -11 -12 -14 -14 -13 -10 -11 -11 -11 -10 -10 -10 -12
-15 -15 -15 -14 -14 -14 -13 -13 -13 -14 -14 -14 -14 -13 -13 -13 -14 -13 -13 -13 -13 -13 -13 -13 -13 -13 -13 -13 -13 -13 -12 -12 -11 -12 -12 -13 -12 -10 -10 -10 -11 -11 -11 -10 -10
-16 -15 -15 -15 -14 -14 -14 -14 -14 -14 -14 -14 -14 -14 -14 -14 -14 -13 -14 -14 -14 -14 -14 -14 -14 -14 -13 -13 -14 -14 -13 -12 -12 -13 -14 -13 -12 -11 -11 -10 -10 -10 -11 -11 -10
-16 -16 -16 -15 -15 -14 -14 -14 -14 -14 -14 -14 -14 -14 -14 -14 -14 -14 -14 -14 -14 -14 -14 -14 -14 -14 -14 -14 -15 -14 -14 -14 -13 -14 -14 -13 -13 -12 -11 -11 -11 -11 -11 -10 -10
-16 -16 -16 -16 -15 -15 -15 -15 -14 -14 -14 -14 -14 -14 -14 -15 -14 -14 -14 -14 -15 -14 -14 -15 -15 -15 -15 -15 -16 -15 -16 -15 -15 -15 -14 -16 -12 -12 -11 -11 -11 -11 -12 -11 -11
-16 -16 -15 -16 -15 -15 -15 -15 -15 -15 -15 -14 -14 -15 -15 -15 -15 -15 -14 -14 -14 -14 -14 -15 -15 -15 -15 -16 -16 -15 -17 -16 -15 -15 -16 -14 -15 -10 -11 -11 -12 -12 -12 -12 -12
-15 -16 -15 -15 -16 -16 -15 -15 -15 -15 -15 -15 -15 -15 -15 -15 -15 -15 -15 -15 -15 -15 -15 -17 -19 -19 -18 -18 -19 -18 -19 -18 -18 -19 -18 -15 -17 -12 -13 -12 -13 -13 -13 -13 -13
-15 -15 -15 -15 -16 -16 -16 -16 -16 -16 -16 -15 -16 -16 -16 -17 -16 -16 -16 -17 -18 -18 -18 -19 -20 -20 -20 -20 -21 -21 -21 -21 -20 -20 -19 -18 -20 -16 -14 -15 -14 -14 -14 -14 -14
-14 -15 -14 -15 -15 -15 -16 -16 -16 -16 -17 -17 -17 -17 -17 -17 -18 -18 -18 -19 -21 -20 -20 -20 -19 -20 -20 -21 -21 -22 -22 -21 -21 -20 -20 -20 -19 -17 -16 -18 -18 -15 -14 -15 -15
-14 -14 -14 -15 -15 -15 -16 -16 -16 -16 -17 -17 -17 -17 -18 -18 -17 -18 -19 -20 -21 -20 -20 -20 -19 -20 -21 -21 -21 -21 -21 -21 -20 -21 -20 -20 -19 -20 -20 -19 -18 -16 -15 -14 -14
-14 -14 -15 -15 -15 -15 -16 -16 -16 -16 -17 -18 -17 -18 -18 -18 -18 -18 -19 -20 -21 -20 -20 -20 -19 -21 -21 -21 -22 -22 -22 -22 -21 -21 -21 -20 -19 -20 -20 -20 -20 -18 -16 -15 -15
-14 -14 -15 -15 -15 -15 -16 -17 -17 -17 -17 -18 -18 -18 -18 -18 -19 -19 -20 -20 -20 -20 -20 -20 -21 -20 -21 -21 -22 -22 -22 -22 -21 -21 -21 -20 -20 -20 -20 -20 -20 -20 -18 -16 -17
-15 -15 -15 -15 -15 -16 -16 -16 -17 -18 -18 -18 -18 -19 -19 -19 -19 -20 -20 -20 -20 -20 -20 -20 -20 -20 -20 -21 -21 -22 -21 -22 -21 -21 -21 -21 -20 -21 -20 -20 -19 -19 -18 -17 -17
-15 -15 -16 -15 -16 -16 -16 -17 -18 -18 -18 -18 -19 -19 -20 -19 -19 -20 -20 -20 -20 -20 -20 -20 -21 -20 -20 -21 -22 -22 -21 -21 -21 -22 -21 -22 -21 -21 -20 -20 -19 -19 -18 -17 -17
-15 -15 -15 -16 -16 -16 -16 -17 -18 -18 -18 -18 -19 -20 -20 -20 -20 -20 -20 -20 -20 -20 -20 -20 -21 -21 -21 -21 -22 -21 -22 -21 -22 -21 -22 -21 -21 -21 -21 -19 -18 -17 -17 -16 -15
-15 -15 -16 -16 -16 -16 -17 -17 -17 -18 -19 -18 -20 -20 -20 -20 -20 -20 -20 -20 -20 -20 -20 -20 -20 -21 -21 -22 -21 -21 -21 -21 -21 -22 -22 -21 -21 -21 -21 -20 -18 -18 -17 -16 -15
-16 -16 -16 -16 -16 -16 -16 -17 -17 -18 -18 -19 -20 -20 -20 -21 -20 -20 -20 -21 -20 -20 -20 -20 -20 -20 -21 -21 -20 -20 -21 -21 -21 -21 -22 -22 -21 -21 -21 -21 -19 -18 -18 -16 -14
-16 -16 -16 -16 -17 -17 -17 -17 -17 -18 -19 -19 -19 -20 -20 -20 -20 -20 -20 -20 -20 -20 -20 -20 -20 -20 -20 -20 -20 -21 -20 -20 -20 -21 -21 -21 -21 -21 -20 -21 -19 -18 -16 -16 -14
Height
5760 5758 5757 5756 5755 5755 5754 5754 5754 5754 5755 5756 5757 5758 5760 5761 5764 5768 5771 5774 5776 5778 5782 5784 5789 5792 5794 5800 5801 5805 5806 5812 5820 5825 5836 5837 5839 5843 5843 5843 5850 5854 5860 5863 5858
5756 5754 5753 5752 5751 5750 5750 5750 5750 5750 5751 5751 5752 5753 5755 5757 5759 5762 5764 5766 5770 5771 5775 5777 5780 5782 5787 5791 5792 5794 5799 5806 5819 5819 5822 5826 5831 5840 5838 5839 5843 5851 5859 5856 5860
5752 5750 5749 5747 5747 5746 5746 5745 5745 5746 5747 5747 5748 5749 5750 5753 5756 5756 5759 5760 5763 5766 5768 5771 5773 5776 5779 5782 5785 5788 5790 5800 5807 5810 5812 5814 5818 5825 5825 5827 5833 5846 5849 5846 5852
5748 5746 5744 5743 5742 5742 5741 5741 5740 5740 5741 5742 5743 5744 5745 5747 5752 5751 5753 5755 5757 5759 5761 5764 5766 5768 5772 5774 5778 5779 5784 5788 5795 5797 5800 5805 5811 5812 5816 5819 5823 5835 5840 5838 5838
5745 5743 5741 5739 5738 5737 5736 5736 5736 5736 5736 5736 5737 5738 5740 5741 5745 5745 5747 5749 5751 5753 5755 5757 5759 5760 5763 5766 5769 5772 5777 5775 5781 5784 5788 5793 5796 5804 5808 5814 5817 5825 5832 5833 5832
5742 5739 5737 5735 5733 5732 5731 5731 5731 5731 5731 5731 5732 5732 5733 5734 5737 5740 5739 5742 5744 5746 5748 5749 5751 5754 5757 5759 5761 5764 5766 5769 5771 5775 5777 5779 5783 5787 5798 5804 5809 5817 5819 5824 5823
5738 5736 5734 5732 5729 5727 5726 5725 5725 5725 5725 5726 5726 5727 5727 5728 5729 5731 5733 5734 5736 5738 5740 5742 5743 5745 5746 5749 5751 5754 5755 5759 5765 5768 5770 5768 5769 5778 5793 5795 5793 5807 5811 5812 5811
5736 5733 5730 5728 5726 5724 5722 5721 5720 5720 5719 5719 5720 5720 5720 5722 5722 5724 5726 5727 5729 5731 5732 5733 5735 5736 5737 5739 5742 5742 5744 5747 5759 5757 5762 5755 5757 5777 5782 5782 5782 5791 5801 5804 5804
5733 5730 5728 5725 5723 5721 5719 5717 5716 5716 5714 5714 5715 5715 5715 5716 5717 5718 5719 5720 5721 5722 5723 5724 5725 5727 5728 5729 5732 5730 5734 5735 5745 5746 5744 5741 5747 5765 5768 5768 5770 5776 5783 5791 5796
5730 5727 5724 5722 5720 5718 5716 5715 5714 5712 5711 5711 5710 5711 5711 5711 5713 5711 5712 5713 5714 5714 5715 5715 5716 5717 5717 5718 5720 5719 5721 5724 5730 5732 5725 5724 5730 5747 5752 5753 5756 5763 5767 5775 5781
5726 5723 5720 5718 5717 5715 5713 5712 5712 5711 5706 5707 5707 5705 5705 5705 5706 5705 5707 5706 5707 5707 5707 5706 5706 5705 5706 5707 5704 5705 5708 5709 5716 5711 5711 5710 5719 5733 5736 5738 5738 5746 5752 5758 5765
5720 5718 5716 5714 5712 5711 5709 5708 5707 5707 5705 5704 5702 5701 5700 5699 5699 5698 5700 5700 5699 5698 5697 5698 5697 5696 5695 5695 5693 5693 5694 5698 5699 5697 5698 5704 5704 5717 5722 5727 5732 5734 5736 5742 5749
5714 5711 5710 5709 5708 5707 5705 5704 5702 5701 5701 5700 5698 5696 5696 5695 5693 5692 5692 5692 5691 5689 5688 5687 5687 5685 5684 5683 5679 5680 5683 5683 5682 5681 5684 5686 5687 5701 5711 5715 5718 5723 5725 5730 5734
5709 5706 5704 5705 5704 5702 5701 5700 5698 5696 5696 5696 5694 5690 5690 5688 5686 5685 5684 5685 5682 5680 5679 5678 5675 5674 5673 5671 5666 5667 5666 5665 5665 5665 5666 5669 5671 5683 5698 5702 5702 5706 5709 5718 5723
5705 5703 5700 5699 5699 5698 5697 5695 5693 5692 5689 5689 5689 5685 5684 5683 5681 5677 5675 5673 5672 5670 5668 5664 5661 5660 5660 5656 5654 5657 5652 5652 5652 5652 5649 5656 5652 5675 5679 5684 5688 5691 5695 5700 5708
5702 5700 5697 5694 5694 5694 5692 5690 5689 5688 5684 5681 5680 5680 5679 5675 5672 5669 5666 5664 5660 5657 5654 5652 5651 5647 5645 5643 5640 5638 5636 5637 5637 5638 5631 5646 5641 5654 5660 5670 5676 5673 5676 5686 5695
5701 5697 5694 5692 5691 5689 5688 5686 5685 5681 5680 5675 5675 5672 5671 5668 5665 5661 5658 5656 5653 5650 5649 5649 5646 5642 5638 5633 5631 5627 5625 5624 5625 5626 5622 5634 5630 5634 5646 5648 5650 5651 5660 5670 5679
5703 5697 5693 5690 5687 5684 5683 5682 5679 5676 5673 5671 5670 5668 5666 5662 5658 5656 5653 5651 5649 5643 5641 5640 5642 5636 5632 5626 5624 5625 5621 5621 5617 5617 5614 5618 5619 5623 5629 5628 5624 5631 5640 5652 5662
5705 5699 5694 5689 5685 5682 5680 5677 5674 5671 5670 5667 5664 5661 5660 5656 5653 5650 5648 5646 5643 5640 5637 5635 5636 5631 5626 5622 5618 5618 5618 5617 5611 5611 5609 5613 5617 5617 5615 5612 5614 5618 5626 5637 5649
5706 5700 5695 5689 5685 5681 5678 5673 5669 5665 5662 5659 5656 5654 5651 5649 5647 5644 5640 5640 5636 5634 5631 5629 5627 5625 5622 5617 5613 5611 5613 5611 5607 5605 5602 5606 5606 5602 5603 5601 5601 5606 5611 5624 5637
5706 5700 5696 5690 5685 5680 5675 5670 5665 5660 5656 5653 5649 5645 5643 5642 5639 5637 5635 5635 5632 5630 5627 5623 5619 5619 5615 5612 5606 5606 5602 5601 5600 5602 5599 5598 5598 5596 5595 5594 5589 5594 5601 5613 5624
5706 5700 5695 5689 5684 5678 5671 5665 5658 5653 5649 5645 5641 5638 5637 5635 5633 5631 5631 5629 5627 5624 5622 5617 5610 5607 5607 5603 5598 5597 5597 5596 5595 5596 5594 5593 5589 5591 5588 5586 5583 5587 5593 5600 5611
5706 5700 5693 5687 5682 5675 5668 5661 5653 5647 5642 5639 5634 5632 5631 5629 5627 5626 5626 5625 5622 5619 5616 5614 5609 5602 5600 5596 5590 5589 5592 5592 5591 5589 5590 5589 5587 5585 5583 5579 5578 5580 5585 5593 5601
5704 5698 5691 5685 5678 5672 5665 5657 5650 5643 5637 5632 5629 5628 5626 5624 5622 5622 5623 5621 5618 5615 5610 5607 5604 5598 5594 5590 5586 5585 5587 5589 5586 5584 5586 5584 5581 5581 5578 5576 5575 5573 5579 5586 5591
5702 5696 5689 5682 5675 5668 5661 5654 5647 5640 5634 5628 5627 5623 5622 5620 5618 5618 5618 5617 5613 5608 5606 5601 5598 5594 5590 5584 5582 5579 5581 5583 5581 5580 5578 5578 5575 5576 5575 5571 5570 5571 5574 5587 5593
5700 5693 5686 5680 5673 5666 5660 5652 5644 5637 5630 5627 5622 5620 5618 5616 5614 5614 5614 5612 5610 5608 5600 5597 5592 5589 5587 5581 5577 5576 5577 5576 5575 5573 5571 5574 5573 5568 5570 5574 5575 5572 5577 5583 5588
5697 5690 5683 5678 5670 5663 5656 5649 5642 5635 5629 5622 5619 5617 5614 5612 5611 5611 5610 5609 5606 5602 5599 5595 5590 5586 5583 5578 5575 5575 5571 5571 5571 5569 5567 5567 5568 5568 5568 5568 5571 5573 5572 5576 5585
Wind_Speed
21 21 21 22 21 20 19 18 18 19 19 20 21 25 25 24 24 25 26 26 29 32 36 40 43 45 45 43 46 47 53 56 47 44 44 36 41 49 39 36 33 41 29 22 34
20 21 21 20 21 21 20 19 19 19 19 19 19 20 22 24 24 23 25 27 28 29 32 35 39 40 43 41 42 46 49 49 42 39 38 37 45 40 49 46 48 39 36 39 36
18 20 21 22 22 20 21 20 20 19 20 20 21 20 21 22 22 23 24 25 27 28 30 33 37 39 40 40 42 43 41 44 49 46 41 39 39 49 45 49 48 45 38 36 42
18 17 18 19 21 23 23 23 23 23 22 21 22 22 23 23 22 23 24 25 25 27 29 32 35 40 41 40 41 43 42 41 40 54 57 48 45 45 59 52 46 38 46 39 32
19 18 17 17 17 17 19 20 21 22 22 24 25 26 26 27 23 24 25 27 27 28 30 31 33 37 39 40 42 43 41 44 43 48 52 55 57 48 45 54 60 46 40 51 49
16 16 17 17 17 18 19 20 20 20 21 22 23 23 26 29 27 26 29 28 29 30 32 34 35 36 37 38 40 41 44 44 45 42 47 51 58 66 56 53 51 43 43 51 52
17 17 16 17 17 17 18 19 21 22 23 23 23 23 24 25 26 26 27 29 29 31 33 35 37 38 40 39 40 41 43 44 43 43 45 52 54 51 46 62 61 47 44 51 53
17 16 17 17 17 16 16 17 18 19 20 21 23 24 25 23 25 26 27 29 31 33 34 36 37 39 40 42 43 45 46 46 40 44 44 48 56 45 44 47 54 63 49 51 57
18 18 17 15 14 14 13 13 12 13 15 16 18 20 21 21 23 23 27 28 30 32 34 36 37 39 41 43 44 47 46 48 45 45 47 48 52 44 44 49 51 51 56 59 56
23 21 20 17 15 14 13 12 11 12 15 15 16 19 17 19 17 24 25 27 29 31 34 37 39 41 42 44 45 46 48 50 48 48 50 50 54 52 49 51 53 53 55 58 60
27 25 21 18 16 15 14 14 14 11 16 13 12 15 15 16 16 21 21 25 28 31 33 36 39 42 42 43 47 48 50 54 53 56 58 61 61 56 57 59 58 55 55 58 59
26 26 23 21 18 16 16 14 14 13 15 11 16 15 17 18 19 20 19 22 26 28 31 34 37 39 44 45 47 50 53 54 54 54 57 59 63 59 58 59 60 61 59 58 59
28 25 23 21 19 18 18 17 17 16 15 14 15 16 14 16 18 20 23 23 25 28 31 34 35 38 41 43 46 48 50 52 56 56 58 62 63 62 59 59 60 61 61 63 62
24 27 22 20 19 18 18 20 19 19 18 17 14 16 16 18 22 23 23 22 25 27 29 31 34 37 39 42 45 50 48 52 56 58 61 55 67 64 60 59 62 63 64 61 60
24 23 22 20 21 20 20 20 20 20 23 19 12 17 19 19 22 25 27 28 27 29 33 32 35 36 38 42 43 47 47 53 56 60 62 63 66 64 62 63 65 65 66 65 61
25 20 22 18 18 20 21 21 20 20 22 24 21 17 18 22 24 26 29 29 33 35 35 31 27 31 39 40 39 42 39 43 47 47 59 57 58 64 64 61 61 67 69 65 64
25 22 21 21 14 20 24 25 22 19 22 27 22 21 20 22 26 27 31 31 30 30 30 24 22 25 36 35 27 31 35 32 30 34 46 38 38 57 58 57 61 62 65 64 66
31 27 24 22 20 19 20 21 18 21 21 21 23 23 20 23 23 27 31 31 15 27 22 25 23 24 31 30 26 19 18 25 29 27 26 28 30 41 49 43 49 60 64 57 58
31 31 30 28 25 22 19 19 21 21 19 20 21 23 23 25 27 28 30 17 22 17 23 26 22 24 27 29 32 29 19 22 25 26 30 25 25 21 31 45 46 53 56 60 58
33 32 31 29 26 25 24 25 23 25 22 22 25 23 24 24 25 27 24 18 19 21 23 24 27 25 23 29 27 25 23 24 27 29 28 29 32 31 27 37 39 49 49 47 44
32 32 32 31 29 28 28 26 27 28 30 27 26 25 25 25 25 23 12 13 18 23 28 30 33 30 26 26 23 19 22 27 24 24 29 33 25 27 23 33 36 35 48 40 45
30 31 31 31 30 31 31 33 35 30 29 31 32 25 21 23 22 13 11 15 22 25 28 29 31 25 26 25 25 26 32 28 24 21 23 25 28 27 29 34 34 33 37 46 51
32 30 29 31 31 33 33 33 30 29 28 27 25 21 18 21 20 13 12 17 24 24 26 22 20 23 19 20 22 22 29 27 30 33 30 30 27 25 25 30 31 28 48 47 46
31 33 33 31 32 34 35 34 29 29 28 27 19 16 17 19 17 8 15 19 22 22 25 22 19 25 27 22 22 25 25 23 28 34 22 19 26 24 30 32 18 26 52 46 39
32 32 34 32 33 35 36 36 32 30 27 25 18 19 17 17 13 12 12 16 21 25 22 20 20 26 32 25 20 19 26 23 27 27 26 25 27 23 29 34 8 29 22 38 37
32 32 34 33 33 34 35 36 35 31 28 21 22 18 17 15 12 11 12 16 17 18 24 25 30 26 32 23 23 14 12 22 24 28 24 24 25 30 28 30 13 17 33 27 32
32 33 33 35 33 34 35 36 35 33 26 26 21 16 18 15 11 12 13 14 13 16 21 19 22 24 18 21 17 12 17 18 20 21 27 25 25 22 25 33 17 19 30 26 31
Wind_Direction
285 285 285 284 282 281 276 272 271 264 255 252 256 255 249 246 243 242 242 239 239 236 231 235 237 238 238 247 244 228 234 237 237 237 231 229 221 215 204 220 212 211 200 217 240
284 282 281 279 279 279 278 275 273 269 266 263 256 256 254 249 244 242 238 238 237 240 235 234 239 238 240 241 243 241 243 244 232 233 230 228 227 224 220 225 225 215 219 228 241
295 283 278 278 277 274 274 272 270 268 266 263 260 255 253 251 247 246 241 242 239 236 238 237 235 239 240 239 243 245 252 250 239 235 238 230 225 224 222 224 231 223 203 221 229
313 302 289 280 275 273 270 269 269 269 269 266 264 262 258 252 249 251 248 246 245 244 240 239 240 240 242 242 242 248 252 248 242 238 238 239 234 223 226 229 226 223 209 215 230
317 312 302 292 285 279 275 272 269 269 267 266 265 264 262 259 256 254 250 249 246 246 248 246 244 244 245 245 244 245 245 247 247 239 237 240 236 236 238 242 239 233 234 219 228
325 321 315 305 293 283 277 272 269 267 264 262 262 263 262 260 259 257 257 254 253 250 249 249 250 250 250 250 250 250 247 247 249 246 243 243 237 237 231 236 239 230 227 228 225
328 325 321 315 308 300 289 282 275 270 268 266 261 258 257 260 257 253 250 253 252 253 252 252 252 252 253 252 251 251 250 248 246 251 251 249 242 240 246 238 241 222 224 227 224
322 322 320 316 311 309 299 292 290 286 281 273 270 268 265 263 260 259 257 254 253 253 253 254 253 253 253 253 252 253 252 251 246 250 249 253 247 243 247 249 246 239 224 228 230
318 317 316 315 317 314 306 303 299 297 286 283 278 272 270 272 268 266 260 259 258 257 256 256 256 256 256 255 254 254 255 254 249 251 253 255 253 241 242 243 245 244 239 238 231
313 312 312 311 316 315 315 313 308 300 291 287 283 279 282 275 271 267 270 270 267 265 264 261 258 257 259 258 256 253 251 252 252 246 248 249 248 239 241 244 243 239 241 236 237
310 310 306 304 308 311 312 314 311 310 303 300 290 293 292 282 276 274 270 270 269 269 267 268 268 266 263 262 261 258 255 254 250 249 248 249 250 248 242 237 239 240 240 239 234
303 301 302 297 295 301 303 301 302 304 301 297 297 299 293 292 288 283 283 277 278 276 274 271 270 268 266 267 265 266 263 260 255 256 254 253 254 251 250 249 245 243 238 241 242
320 296 294 295 293 292 297 299 297 296 298 298 297 292 289 289 287 290 287 291 286 284 283 280 276 274 272 270 268 266 265 264 262 259 258 255 251 250 247 250 253 252 251 245 242
332 334 287 288 288 285 293 297 296 295 293 291 294 284 294 293 291 290 290 288 289 289 286 285 280 275 271 268 266 267 260 258 258 258 260 257 256 249 247 247 248 250 253 252 252
333 336 337 285 285 283 285 291 293 295 296 291 277 293 293 295 292 295 302 304 302 298 295 296 291 286 279 274 271 268 265 266 262 260 260 258 258 250 248 243 245 248 249 249 251
353 343 346 332 281 280 292 297 297 298 293 287 291 289 288 293 304 305 304 311 310 306 307 314 314 309 303 303 291 284 273 262 256 259 259 258 261 255 257 253 246 247 246 245 248
357 353 343 344 332 293 294 294 286 288 284 288 302 303 306 305 303 306 306 313 315 308 306 298 319 313 317 307 291 274 273 277 261 263 268 267 267 259 254 253 250 245 243 242 243
11 12 7 358 337 325 313 302 295 293 290 293 296 295 301 297 291 293 299 301 290 283 300 307 307 313 323 302 269 263 267 262 274 277 283 250 269 265 250 249 244 245 244 240 238
22 19 17 12 7 352 334 315 306 296 307 296 291 293 290 288 294 296 294 273 265 287 291 303 304 310 317 314 290 259 272 259 284 264 282 272 270 265 254 253 249 245 242 243 240
9 10 10 11 6 358 348 337 321 312 303 302 296 293 292 293 297 301 291 262 264 300 300 306 306 310 301 313 310 269 266 266 272 269 290 282 279 279 241 237 243 241 238 231 231
6 5 2 358 356 353 348 335 321 309 311 302 296 293 293 299 300 303 294 284 295 301 310 313 304 300 293 310 298 235 265 239 252 273 282 287 278 264 255 244 241 229 230 222 207
5 3 360 358 355 350 344 336 328 327 319 316 310 290 295 296 306 279 275 288 300 311 316 313 309 310 300 299 280 252 245 266 268 273 275 288 279 281 279 266 260 222 206 200 203
357 1 357 356 355 350 345 342 336 332 325 322 313 302 301 302 307 261 268 291 306 309 312 318 324 322 332 315 266 251 240 256 259 269 276 286 289 296 283 271 259 241 198 189 198
355 352 354 353 354 352 350 348 342 335 331 330 325 304 306 308 300 263 262 287 300 310 314 310 327 328 327 319 292 259 246 255 257 269 273 275 296 321 302 274 260 231 190 186 204
350 353 354 352 350 352 352 351 350 343 331 328 330 316 315 314 290 280 289 301 313 310 321 316 314 316 333 317 313 277 252 259 267 269 266 276 305 319 315 297 27 212 182 204 216
344 348 351 352 348 350 350 352 353 349 337 325 328 314 313 313 281 264 300 305 312 324 307 320 306 312 326 305 316 335 242 238 246 247 265 281 282 279 296 301 315 162 225 193 175
343 344 346 351 346 346 348 348 352 352 338 328 329 323 314 314 272 261 289 309 321 332 327 329 330 320 338 336 326 308 287 288 299 279 273 270 270 273 290 297 251 167 171 152 173